Date String (YYYY-MM-DD hh:mm:ss) UTC,Instrument flags,absolute air pressure of the measurement (hPa),sample flow rate (lpm),inlet stack bypass flow (lpm),air temperature of the measurement (°C),ambient temperature measured by the external sensor (°C),aerosol sample conditioner tube jacket temperature (°C),OPC LED temperature (°C),internal box temperature (°C),relative humidity of the measurement (%),span deviation,mass concentration of particles derived from Lorenz-Mie calculation of OPC scattering (μg/m³),mass concentration of particles derived from Lorenz-Mie calculation of OPC scattering (μg/m³),mass concentration of particles derived from Lorenz-Mie calculation of OPC scattering (μg/m³)
DateTimeUTC,F1_M11,P_M11,Q1_M11,Q2_M11,T1_M11,T2_M11,T3_M11,T4_M11,T5_M11,U1_M11,ZSPAN_M11,X0_M11,X2_M11,X1_M11
2024-04-16 00:00:00,SystemResetWarning,0815.2,5.00,000.00,025.7,024.8,000.0,033.9,027.4,013.9,0000.0,0008.30,0001.93,0000.89
2024-04-16 00:01:00,SystemResetWarning,0815.2,4.99,000.00,025.7,024.8,000.0,033.9,027.4,014.0,0000.0,0008.18,0001.84,0000.86
2024-04-16 00:02:00,SystemResetWarning,0815.2,5.00,000.00,025.7,024.8,000.0,034.0,027.4,014.0,0000.0,0008.08,0001.77,0000.82
2024-04-16 00:03:00,SystemResetWarning,0815.2,5.00,000.00,025.7,024.8,000.0,033.9,027.4,014.1,0000.0,0008.01,0001.71,0000.80
2024-04-16 00:04:00,SystemResetWarning,0815.3,5.00,000.00,025.7,024.8,000.0,034.0,027.4,014.2,0000.0,0007.68,0001.68,0000.77
2024-04-16 00:05:00,SystemResetWarning,0815.4,5.00,000.00,025.7,024.8,000.0,034.0,027.4,014.3,0000.0,0006.98,0001.54,0000.74
2024-04-16 00:06:00,SystemResetWarning,0815.4,5.00,000.00,025.7,024.8,000.0,034.0,027.4,014.4,0000.0,0006.02,0001.43,0000.69
2024-04-16 00:07:00,SystemResetWarning,0815.2,5.00,000.00,025.7,024.8,000.0,034.0,027.4,014.3,0000.0,0006.27,0001.32,0000.66
2024-04-16 00:08:00,SystemResetWarning,0815.3,5.01,000.00,025.7,024.8,000.0,034.0,027.3,014.1,0000.0,0006.47,0001.19,0000.62
2024-04-16 00:09:00,SystemResetWarning,0815.5,5.00,000.00,025.7,024.8,000.0,034.0,027.3,014.2,0000.0,0007.68,0001.18,0000.61
2024-04-16 00:10:00,SystemResetWarning,0815.6,5.00,000.00,025.7,024.7,000.0,034.0,027.3,014.2,0000.0,0007.37,0001.13,0000.58
2024-04-16 00:11:00,SystemResetWarning,0815.5,4.99,000.00,025.7,024.8,000.0,034.0,027.3,014.4,0000.0,0007.01,0001.07,0000.54
2024-04-16 00:12:00,SystemResetWarning,0815.6,5.00,000.00,025.7,024.7,000.0,034.0,027.3,014.3,0000.0,0007.42,0001.04,0000.52
2024-04-16 00:13:00,SystemResetWarning,0815.7,5.01,000.00,025.6,024.7,000.0,034.0,027.3,014.3,0000.0,0007.42,0000.98,0000.50
2024-04-16 00:14:00,SystemResetWarning,0815.6,5.00,000.00,025.6,024.7,000.0,034.0,027.4,014.3,0000.0,0007.49,0000.93,0000.47
2024-04-16 00:15:00,SystemResetWarning,0815.4,4.98,000.00,025.6,024.7,000.0,034.0,027.3,014.4,0000.0,0007.34,0000.85,0000.44
2024-04-16 00:16:00,SystemResetWarning,0815.4,5.01,000.00,025.6,024.7,000.0,034.0,027.3,014.4,0000.0,0007.56,0000.91,0000.44
2024-04-16 00:17:00,SystemResetWarning,0815.5,5.00,000.00,025.6,024.7,000.0,034.0,027.3,014.5,0000.0,0007.82,0000.95,0000.44
2024-04-16 00:18:00,SystemResetWarning,0815.5,5.01,000.00,025.6,024.7,000.0,034.0,027.3,014.6,0000.0,0006.87,0001.01,0000.44
2024-04-16 00:19:00,SystemResetWarning,0815.6,5.01,000.00,025.6,024.7,000.0,034.0,027.3,014.7,0000.0,0006.38,0001.05,0000.45
2024-04-16 00:20:00,SystemResetWarning,0815.6,5.00,000.00,025.6,024.7,000.0,034.0,027.3,014.8,0000.0,0004.86,0001.06,0000.45
2024-04-16 00:21:00,SystemResetWarning,0815.7,5.00,000.00,025.6,024.7,000.0,034.0,027.3,014.8,0000.0,0004.36,0001.07,0000.45
2024-04-16 00:22:00,SystemResetWarning,0815.5,4.99,000.00,025.6,024.7,000.0,034.0,027.3,014.8,0000.0,0004.73,0001.10,0000.47
2024-04-16 00:23:00,SystemResetWarning,0815.6,4.99,000.00,025.6,024.7,000.0,034.0,027.3,014.8,0000.0,0004.15,0001.13,0000.48
2024-04-16 00:24:00,SystemResetWarning,0815.7,5.00,000.00,025.6,024.6,000.0,034.0,027.3,014.9,0000.0,0004.73,0001.17,0000.50
2024-04-16 00:25:00,SystemResetWarning,0815.8,5.01,000.00,025.6,024.6,000.0,034.0,027.2,015.0,0000.0,0005.64,0001.19,0000.51
2024-04-16 00:26:00,SystemResetWarning,0815.9,4.98,000.00,025.6,024.6,000.0,034.0,027.3,015.0,0000.0,0007.44,0001.22,0000.53
2024-04-16 00:27:00,SystemResetWarning,0815.8,5.00,000.00,025.6,024.6,000.0,034.0,027.3,015.1,0000.0,0008.02,0001.16,0000.53
2024-04-16 00:28:00,SystemResetWarning,0815.9,5.01,000.00,025.5,024.6,000.0,034.0,027.3,015.1,0000.0,0007.78,0001.15,0000.53
2024-04-16 00:29:00,SystemResetWarning,0815.8,5.01,000.00,025.5,024.6,000.0,034.0,027.3,015.2,0000.0,0007.80,0001.12,0000.52
2024-04-16 00:30:00,SystemResetWarning,0815.7,5.00,000.00,025.5,024.6,000.0,034.0,027.2,015.0,0000.0,0008.14,0001.10,0000.52
2024-04-16 00:31:00,SystemResetWarning,0815.8,5.00,000.00,025.5,024.6,000.0,033.9,027.2,015.0,0000.0,0008.93,0001.10,0000.51
2024-04-16 00:32:00,SystemResetWarning,0815.8,4.99,000.00,025.5,024.5,000.0,033.9,027.2,015.0,0000.0,0009.16,0001.07,0000.49
2024-04-16 00:33:00,SystemResetWarning,0816.0,5.00,000.00,025.5,024.5,000.0,033.9,027.2,015.0,0000.0,0009.00,0001.06,0000.49
2024-04-16 00:34:00,SystemResetWarning,0815.8,5.00,000.00,025.5,024.5,000.0,033.9,027.2,015.0,0000.0,0008.93,0001.05,0000.49
2024-04-16 00:35:00,SystemResetWarning,0815.8,5.01,000.00,025.5,024.5,000.0,033.9,027.1,014.7,0000.0,0008.48,0001.02,0000.48
2024-04-16 00:36:00,SystemResetWarning,0816.0,5.01,000.00,025.5,024.5,000.0,033.9,027.2,014.7,0000.0,0007.86,0001.00,0000.47
2024-04-16 00:37:00,SystemResetWarning,0815.9,5.00,000.00,025.5,024.5,000.0,033.9,027.2,014.6,0000.0,0006.38,0000.99,0000.44
2024-04-16 00:38:00,SystemResetWarning,0816.0,5.00,000.00,025.5,024.5,000.0,033.9,027.2,014.6,0000.0,0005.79,0001.00,0000.43
2024-04-16 00:39:00,SystemResetWarning,0815.9,4.99,000.00,025.5,024.5,000.0,033.9,027.1,014.5,0000.0,0005.72,0000.97,0000.40
2024-04-16 00:40:00,SystemResetWarning,0815.8,5.00,000.00,025.5,024.5,000.0,033.9,027.1,014.4,0000.0,0005.68,0000.97,0000.39
2024-04-16 00:41:00,SystemResetWarning,0815.9,5.00,000.00,025.4,024.4,000.0,033.9,027.1,014.4,0000.0,0004.77,0000.94,0000.37
2024-04-16 00:42:00,SystemResetWarning,0815.9,5.00,000.00,025.4,024.4,000.0,033.9,027.1,014.4,0000.0,0003.18,0000.87,0000.35
2024-04-16 00:43:00,SystemResetWarning,0815.9,5.00,000.00,025.4,024.4,000.0,033.9,027.1,014.4,0000.0,0002.52,0000.81,0000.34
2024-04-16 00:44:00,SystemResetWarning,0815.9,5.01,000.00,025.4,024.4,000.0,033.9,027.1,014.4,0000.0,0003.22,0000.78,0000.32
2024-04-16 00:45:00,SystemResetWarning,0816.1,5.00,000.00,025.4,024.4,000.0,033.8,027.1,014.4,0000.0,0004.90,0000.75,0000.30
2024-04-16 00:46:00,SystemResetWarning,0816.1,4.98,000.00,025.4,024.4,000.0,033.8,027.1,014.4,0000.0,0004.88,0000.73,0000.28
2024-04-16 00:47:00,SystemResetWarning,0816.0,4.99,000.00,025.4,024.4,000.0,033.8,027.1,014.3,0000.0,0004.89,0000.71,0000.27
2024-04-16 00:48:00,SystemResetWarning,0816.1,5.01,000.00,025.4,024.4,000.0,033.8,027.1,014.2,0000.0,0004.94,0000.72,0000.27
2024-04-16 00:49:00,SystemResetWarning,0816.2,5.01,000.00,025.4,024.3,000.0,033.8,027.1,014.4,0000.0,0004.43,0000.70,0000.28
2024-04-16 00:50:00,SystemResetWarning,0816.2,5.00,000.00,025.3,024.3,000.0,033.8,027.1,014.4,0000.0,0004.03,0000.67,0000.28
2024-04-16 00:51:00,SystemResetWarning,0816.2,4.99,000.00,025.3,024.3,000.0,033.8,027.1,014.4,0000.0,0003.89,0000.63,0000.29
2024-04-16 00:52:00,SystemResetWarning,0816.1,5.00,000.00,025.3,024.3,000.0,033.8,027.0,014.4,0000.0,0003.87,0000.62,0000.29
2024-04-16 00:53:00,SystemResetWarning,0816.1,4.99,000.00,025.3,024.3,000.0,033.8,027.1,014.4,0000.0,0003.93,0000.65,0000.30
2024-04-16 00:54:00,SystemResetWarning,0816.1,5.00,000.00,025.3,024.3,000.0,033.8,027.0,014.4,0000.0,0004.02,0000.68,0000.29
2024-04-16 00:55:00,SystemResetWarning,0816.1,5.01,000.00,025.3,024.3,000.0,033.8,027.1,014.5,0000.0,0004.88,0000.71,0000.30
2024-04-16 00:56:00,SystemResetWarning,0816.2,5.01,000.00,025.3,024.3,000.0,033.8,027.0,014.6,0000.0,0002.50,0000.72,0000.31
2024-04-16 00:57:00,SystemResetWarning,0816.2,4.99,000.00,025.3,024.3,000.0,033.8,027.0,014.6,0000.0,0002.45,0000.69,0000.31
2024-04-16 00:58:00,SystemResetWarning,0816.3,4.99,000.00,025.3,024.3,000.0,033.8,026.9,014.6,0000.0,0002.64,0000.70,0000.30
2024-04-16 00:59:00,SystemResetWarning,0816.4,4.99,000.00,025.3,024.3,000.0,033.8,026.9,014.6,0000.0,0002.50,0000.67,0000.29
